User: anonymous
Location: Caltech
(34.1382°N, 118.1253°W)
Time: 09:01:26
(UTC-07:00)
Language:

AO-Echo - Orbit

View from above orbital plane
View from above orbital plane
View from above satellite
View from above satellite

Ground track
Ground track

The orbit data is extracted from the following two-line orbital elements,

1 28375U 04025K   14232.41735488  .00000064  00000-0  31780-4 0  9137
2 28375 098.2547 177.1557 0083840 157.5326 202.9570 14.41412097533163
Epoch (UTC): 20 August 2014 10:00:59
Eccentricity: 0.0083840
inclination: 98.2547°
perigee height: 694 km
apogee height: 813 km
right ascension of ascending node: 177.1557°
argument of perigee: 157.5326°
revolutions per day: 14.41412097
mean anomaly at epoch: 202.9570°
orbit number at epoch: 53316

The dashed part of the orbit path shows where the satellite is in the earth's shadow,  

DLR